User: anonymous   Login
Location: Unspecified
(0.0000°N, 0.0000°E)
Time: 12:32:19
(UTC+00:00)
Language:

Kosmos-1634 - Orbit

View from above orbital plane
View from above orbital plane
View from above satellite
View from above satellite

Ground track
Ground track

The orbit data is extracted from the following two-line orbital elements,

1 15597U 85022A   18020.88956477 +.00000045 +00000-0 +30937-4 0  9994
2 15597 082.9419 330.8443 0034824 322.5048 061.4676 13.75062100648409
Epoch (UTC): 20 January 2018 21:20:58
Eccentricity: 0.0034824
inclination: 82.9419°
perigee height: 956 km
apogee height: 1007 km
right ascension of ascending node: 330.8443°
argument of perigee: 322.5048°
revolutions per day: 13.75062100
mean anomaly at epoch: 61.4676°
orbit number at epoch: 64840

The dashed part of the orbit path shows where the satellite is in the earth's shadow,  

DLR